{"data":{"norad_id":64753,"epoch":"2026-09-21T00:41:53.909952Z","epoch_age_seconds":128758,"freshness":"FRESH","line1":"1 64753U 25145A   26264.02909618  .00000548  00000+0  45049-4 0  9999","line2":"2 64753  10.9990  61.8567 0003807 279.1950  80.7847 14.29333948 63648","mean_motion":14.29333948,"eccentricity":0.0003807,"inclination_deg":10.999,"raan_deg":61.8567,"arg_perigee_deg":279.195,"mean_anomaly_deg":80.7847,"bstar":4.5049e-5,"rev_number":6364,"period_min":100.74622533208,"perigee_km":791.22761655704,"apogee_km":796.68844971527,"semimajor_km":7172.0950331362,"source":"CELESTRAK","updated_at":"2026-09-22T09:00:29.935547Z"}}